Flag for Denmark Weather past 2 weeks in Roskilde, Denmark

Now
63 °F

Mild.


Feels Like: 63 °F
Forecast: 59 / 75 °F
Wind: 7 mph from West

Location: Koebenhavn / Roskilde

Current Time: Jul 31, 2014 at 7:53:58 AM

Latest Report: Jul 31, 2014 at 7:20 AM


Visibility: N/A

Pressure: 29.83 "Hg

Humidity: 83%

Dew point: 57 °F

Location of RoskildeLocation

Historic Weather in Roskilde — Graph

°F

Roskilde temperature yesterday

Maximum temperature yesterday: 75 °F (at 5:20 PM)
Minimum temperature yesterday: 63 °F (at 10:50 PM)
Average temperature yesterday: 69 °F

Past Weeks' High & Low Weather Summary

 TemperatureHumidityPressure
High84 °F (Jul 25, 2:20 PM)100% (Jul 18, 3:50 AM)30.24 "Hg (Jul 18, 3:50 AM)
Low52 °F (Jul 17, 12:50 AM)32% (Jul 23, 4:50 PM)29.74 "Hg (Jul 30, 5:20 AM)
Average70 °F70%30.03 "Hg
* Reported Jul 16 6:20 AM — Jul 31 6:50 AM, Roskilde, Weather by CustomWeather, © 2014

Note: Actual official high and low records may vary slightly from our data, if they occured in-between our weather recording intervals... More about our weather records

Advertising

Roskilde weather history for previous 24 hours

 ConditionsComfort  
Time TempWeatherWind HumidityBarometerVisibility
6:50 AM
Jul 31
61 °FCool.7 mph88%29.83 "HgN/A
6:20 AM59 °FCool.6 mph88%29.83 "HgN/A
5:50 AM57 °FCool.6 mph94%29.83 "HgN/A
5:20 AM57 °FCool.8 mph94%29.83 "HgN/A
4:50 AM57 °FPassing clouds.6 mph94%29.83 "HgN/A
4:20 AM57 °FCool.5 mph94%29.83 "HgN/A
3:50 AM57 °FCool.6 mph88%29.83 "HgN/A
3:20 AM57 °FCool.6 mph88%29.83 "HgN/A
2:50 AM57 °FCool.6 mph88%29.80 "HgN/A
2:20 AM59 °FCool.7 mph82%29.80 "HgN/A
1:50 AM61 °FCool.7 mph83%29.80 "HgN/A
1:20 AM61 °FCool.7 mph83%29.80 "HgN/A
12:50 AM63 °FPassing clouds.8 mph77%29.80 "HgN/A
12:20 AM64 °FPassing clouds.9 mph73%29.80 "HgN/A
11:50 PM
Jul 30
64 °FPassing clouds.9 mph73%29.80 "HgN/A
11:20 PM64 °FPassing clouds.6 mph73%29.80 "HgN/A
10:50 PM63 °FPassing clouds.6 mph77%29.80 "HgN/A
10:20 PM66 °FScattered clouds.6 mph68%29.80 "HgN/A
9:50 PM68 °FPartly sunny.8 mph64%29.80 "HgN/A
9:20 PM70 °FPartly sunny.7 mph60%29.77 "HgN/A
8:50 PM72 °FBroken clouds.7 mph57%29.77 "HgN/A
8:20 PM72 °FPartly sunny.7 mph57%29.77 "HgN/A
7:50 PM73 °FBroken clouds.5 mph53%29.77 "HgN/A
7:20 PM72 °FPassing clouds.6 mph57%29.77 "HgN/A
6:50 PM75 °FPartly sunny.7 mph47%29.77 "HgN/A
6:20 PM73 °FPartly sunny.9 mph50%29.77 "HgN/A
5:50 PM75 °FPartly sunny.7 mph44%29.77 "HgN/A
5:20 PM75 °FPartly sunny.6 mph34%29.77 "HgN/A
4:50 PM73 °FScattered clouds.8 mph47%29.77 "HgN/A
4:20 PM73 °FBroken clouds.12 mph65%29.77 "HgN/A
3:50 PM72 °FPartly sunny.13 mph73%29.77 "HgN/A
3:20 PM73 °FPartly sunny.10 mph65%29.77 "HgN/A
2:50 PM73 °FPartly sunny.7 mph65%29.77 "HgN/A
2:20 PM72 °FPartly sunny.8 mph73%29.77 "HgN/A
1:50 PM72 °FPartly sunny.6 mph73%29.77 "HgN/A
1:20 PM72 °FPartly sunny.7 mph73%29.77 "HgN/A
12:50 PM70 °FPartly sunny.7 mph78%29.77 "HgN/A
12:20 PM70 °FPartly sunny.7 mph83%29.77 "HgN/A
11:50 AM70 °FSprinkles. Broken clouds.8 mph83%29.77 "HgN/A
11:20 AM70 °FSprinkles. Partly sunny.7 mph88%29.77 "HgN/A
10:50 AM68 °FBroken clouds.5 mph94%29.77 "HgN/A
10:20 AM68 °FSprinkles. Partly sunny.5 mph88%29.77 "HgN/A
9:50 AM68 °FSprinkles. Scattered clouds.5 mph94%29.77 "HgN/A
9:20 AM68 °FLight rain. Scattered clouds.6 mph94%29.77 "HgN/A
8:50 AM68 °FSprinkles. Scattered clouds.7 mph94%29.77 "HgN/A
8:20 AM68 °FSprinkles. Partly sunny.8 mph88%29.74 "HgN/A
7:50 AM68 °FSprinkles. Partly sunny.8 mph88%29.74 "HgN/A
7:20 AM68 °FLight rain. Partly sunny.8 mph88%29.74 "HgN/A
Weather by CustomWeather, © 2014

See weather overviewHow to use our weather pages